Location: Archamps
(46.1365°N, 6.1329°E)
Time: 20:18:48
(UTC+00:00)

Daily predictions for brighter satellites

Satellite Brightness Start Highest point End
(mag) Time Altitude Azimuth Time Altitude Azimuth Time Altitude Azimuth
Cosmos 1697 Rocket 2.7 16:58:18 10° SSW 17:03:57 77° ESE 17:09:37 10° NNE
Cosmos 2266 Rocket 4.5 17:00:29 10° N 17:06:21 38° ENE 17:12:05 10° SE
CZ-4B R/B 3.2 17:02:17 10° SE 17:06:22 48° ENE 17:10:15 10° N
CORIOLIS 4.3 17:00:59 10° SSE 17:06:25 87° WSW 17:11:53 10° NNW
BlueWalker 3 2.5 17:04:20 10° SSW 17:08:02 45° SE 17:11:46 10° ENE
Lacrosse 5 rocket 3.1 17:07:32 10° NW 17:09:44 15° N 17:11:56 10° NNE
Meteor 1-24 Rocket 3.9 17:04:21 10° S 17:10:08 85° W 17:15:44 10° N
Okean O Rocket 3.4 17:13:01 10° E 17:14:51 12° ENE 17:16:40 10° NNE
ATLAS 5 CENTAUR R/B 2.7 17:11:35 10° WSW 17:14:55 32° NW 17:18:41 10° NNE
Cosmos 2263 Rocket 2.6 17:09:55 10° NNW 17:15:10 40° NE 17:20:23 10° SE
NOSS 2-1 (D) 4.3 17:12:45 10° NNW 17:16:40 37° NE 17:21:57 10° ESE
Meteor 2-5 Rocket 4.3 17:14:18 10° SSW 17:20:07 66° WNW 17:25:52 10° N
CZ-2C R/B 4.4 17:17:51 10° N 17:22:40 32° WNW 17:27:33 10° SW
Cosmos 2082 3.7 17:18:04 10° NNW 17:23:42 68° ENE 17:29:17 10° SE
CZ-4C R/B 3.9 17:20:39 10° NNE 17:24:19 35° E 17:27:48 10° SSE
CZ-4B DEB 4.4 17:20:26 10° SE 17:25:37 47° ENE 17:30:50 10° N
SL-08 R/B 3.5 17:20:43 10° NNE 17:25:40 88° WNW 17:30:38 10° SSW
Cosmos 1544 Rocket 3.6 17:21:27 10° N 17:25:42 52° ENE 17:29:55 10° SSE
Cosmos 2228 4.1 17:22:42 10° NNE 17:26:04 22° ENE 17:29:25 10° ESE
DELTA 2 DEB (DPAF) 4.1 17:23:01 10° NNE 17:27:25 89° E 17:31:49 10° SSW
ATLAS 2AS CENTAUR R/B 3.6 17:22:28 10° NNW 17:28:42 31° NNE 17:34:03 12° E
Cosmos 2279 Rocket 4.1 17:24:28 10° S 17:30:40 86° W 17:36:55 10° N
ISS -2.7 17:31:53 10° WNW 17:34:59 32° N 17:37:02 17° ENE
CZ-4B R/B 3.8 17:31:40 10° SE 17:36:18 32° ENE 17:41:01 10° N
Cosmos 1455 Rocket 4.0 17:34:47 10° NNW 17:39:02 51° W 17:43:13 10° S
ATLAS CENTAUR R/B 2.1 17:37:26 10° S 17:41:55 43° ESE 17:45:16 16° NE
Cosmos 1867 3.7 17:37:41 10° NW 17:43:10 83° SW 17:48:36 10° SSE
NOSS 3-4 (A) 4.1 17:38:25 10° NW 17:45:24 75° SW 17:53:20 10° SSE
NOSS 3-4 (C) 4.1 17:38:31 10° NW 17:45:30 76° SW 17:53:27 10° SSE
Cosmos 407 Rocket 3.9 17:40:45 10° S 17:45:31 39° ESE 17:50:14 10° NE
Cosmos 2278 4.1 17:41:47 10° S 17:47:04 42° ESE 17:52:09 11° NE
Cosmos 1844 Rocket 4.0 17:43:45 10° N 17:47:46 20° NE 17:49:18 18° ENE
SKYMED 2 3.5 17:46:08 10° NNE 17:50:31 83° ESE 17:54:51 10° SSW
Tiangong 0.1 17:51:18 10° WSW 17:53:48 21° SSW 17:56:17 10° SE
SL-4 R/B 1.6 17:53:13 10° WSW 17:56:42 79° NNW 17:58:33 27° ENE
Cosmos 1340 Rocket 2.7 17:54:39 10° S 17:58:27 59° E 18:02:16 10° NNE
Cosmos 1408 2.7 17:55:46 10° SSE 17:58:58 41° E 18:00:41 23° NE
USA 290 2.2 17:57:12 10° S 18:00:24 62° ESE 18:02:01 26° NE
Cosmos 2360 Rocket 4.2 17:59:21 10° SE 17:59:31 10° SE 17:59:31 10° SE
BREEZE-M DEB (TANK) 2.7 18:00:37 10° W 18:03:44 87° S 18:07:22 23° E
PAYLOAD B 4.1 18:02:10 10° SSE 18:07:42 78° ENE 18:13:14 10° NNW
YAOGAN 1 2.5 18:04:36 10° SSE 18:08:51 62° ENE 18:13:07 10° N
Cosmos 2322 Rocket 3.2 18:05:17 10° SSE 18:09:28 24° ESE 18:09:28 24° ESE
Cosmos 1655 Rocket 4.0 18:04:09 10° N 18:10:28 86° W 18:16:42 10° S
NOSS 2-1 (E) 3.9 18:06:33 10° NW 18:11:01 82° NE 18:17:26 10° SE
Cosmos 1140 Rocket 3.4 18:05:50 10° SSW 18:11:01 78° ESE 18:16:05 11° NNE
Cosmos 1607 3.8 18:05:03 10° SSW 18:11:10 82° ESE 18:16:06 17° NE
SL-08 ROCKET BODY 4.3 18:07:53 10° N 18:13:47 64° ENE 18:19:33 10° SSE
CZ-4 R/B 1.7 18:11:27 10° SE 18:15:24 45° ENE 18:19:21 10° N
Cosmos 724 4.3 18:10:19 10° SSW 18:16:05 61° ESE 18:19:48 23° NE
Cosmos 1184 Rocket 4.4 18:16:00 10° NNW 18:16:38 16° NNW 18:16:38 16° NNW
Cosmos 1536 Rocket 3.5 18:14:50 10° S 18:19:09 82° W 18:23:30 10° N
SL-16 R/B 2.6 18:14:26 10° S 18:19:41 40° ESE 18:21:31 31° ENE
Cosmos 1023 Rocket 4.5 18:15:32 10° SSW 18:20:43 84° WNW 18:25:40 11° NNE
COSMOS 2455 3.3 18:16:44 10° SW 18:22:40 62° NW 18:28:06 13° NNE
APEX 4.5 18:18:10 10° S 18:24:02 50° ESE 18:26:40 30° NE
In-Cosmos 22 Rocket 4.5 18:22:38 10° SSE 18:28:05 46° E 18:32:51 14° NNE
Cosmos 44 4.2 18:25:04 10° WSW 18:29:10 40° NW 18:32:00 19° NNE
Cosmos 1892 2.5 18:25:47 10° S 18:29:27 66° E 18:29:28 66° E
Meteor 2-12 Rocket 4.5 18:24:58 10° N 18:30:56 52° ENE 18:36:49 10° SSE
Cosmos 1606 Rocket 3.4 18:29:58 10° N 18:34:16 64° E 18:35:44 38° SE
Cosmos 2251 Rocket 4.1 18:29:31 10° SW 18:34:47 58° WNW 18:40:06 10° NNE
IRIDIUM 104 4.5 18:30:17 10° N 18:35:20 47° E 18:36:11 43° ESE
CSL-04 Debris 4.4 18:37:12 43° ENE 18:37:14 43° ENE 18:42:19 10° N
Cosmos 468 Rocket 4.3 18:33:16 10° N 18:38:00 44° NE 18:38:00 44° NE
COSMO-SKYMED 1 4.3 18:34:31 10° N 18:38:25 32° WNW 18:42:17 10° SW
Cosmos 1954 Rocket 4.1 18:34:42 10° S 18:39:46 51° ESE 18:40:04 50° E
Cosmos 1980 Rocket 3.3 18:34:40 10° SW 18:40:00 42° NW 18:45:24 10° NNE
Meteor 1-11 4.1 18:36:49 10° S 18:42:36 74° E 18:48:25 10° NNE
Spot 1 4.0 18:43:11 62° SSE 18:43:11 62° SSE 18:46:45 10° S
Lacrosse 5 3.1 18:39:13 10° S 18:42:20 26° SSE 18:42:20 26° SSE
IRIDIUM 114 4.3 18:39:21 10° N 18:44:30 57° E 18:45:21 50° ESE
BlueWalker 3 2.7 18:42:58 10° W 18:46:42 44° NNW 18:46:49 44° NNW
CSL-04 Rocket 4.2 18:50:17 41° NNE 18:50:17 41° NNE 18:54:14 10° N
Lacrosse 5 rocket 3.3 18:47:08 10° NNW 18:48:24 15° NNW 18:48:24 15° NNW
Okean O Rocket 1.5 18:47:20 19° SSE 18:50:31 84° WSW 18:54:57 10° NNW
Feng Yun 1-1 Rocket 4.1 18:47:47 10° SSE 18:53:27 87° ENE 18:59:00 10° NNW
IRIDIUM 103 4.2 18:48:28 10° N 18:53:41 68° E 18:54:30 58° SE
Cosmos 2263 Rocket 3.7 18:54:02 10° NW 18:59:00 34° WSW 19:03:57 10° S
ATLAS 5 CENTAUR R/B 4.1 18:59:52 10° NNW 19:00:49 11° NNW 19:01:38 10° N
Cosmos 1553 Rocket 3.8 18:55:01 10° S 19:01:01 69° E 19:07:06 10° NNE
BREEZE M DEB (TANK) 4.2 18:58:24 10° WNW 19:01:27 27° SW 19:01:27 27° SW
Cosmos 1763 Rocket 3.3 19:00:36 10° NNW 19:05:50 90° NE 19:05:58 86° SSE
IRIDIUM 106 4.3 19:06:45 10° N 19:12:00 84° W 19:12:35 71° SSW
ISS -1.3 19:08:39 10° WNW 19:09:56 21° WNW 19:09:56 21° WNW
SL-08 R/B 4.4 19:07:21 10° N 19:13:37 89° E 19:17:35 24° S
CZ-4B R/B 4.4 19:11:47 10° SSW 19:16:44 40° W 19:21:48 10° NNW
Cosmos 676 Rocket 4.2 19:13:57 10° SSW 19:18:23 63° SSW 19:18:23 63° SSW
ATLAS 2AS CENTAUR R/B 2.6 19:13:26 10° NW 19:20:30 87° SW 19:21:32 67° SSE
ATLAS CENTAUR R/B 3.1 19:16:21 10° WSW 19:20:35 32° NW 19:21:07 31° NNW
Cosmos 1844 4.2 19:23:14 10° NNW 19:27:34 52° NNW 19:27:34 52° NNW
Cosmos 1844 Rocket 3.2 19:26:48 10° NNW 19:31:01 53° NNW 19:31:01 53° NNW
Cosmos 2360 Rocket 4.0 19:39:32 10° SSW 19:41:22 22° SSW 19:41:22 22° SSW
CZ-4 R/B 4.1 19:47:40 10° SW 19:50:30 18° W 19:53:20 10° NW
Cosmos 2322 Rocket 3.3 19:47:44 10° SW 19:51:22 39° WSW 19:51:22 39° WSW
SL-16 R/B 3.5 19:58:38 10° WSW 20:03:28 36° WNW 20:03:28 36° WNW
